Board Camp, AR

4:37 AM CST on February 09, 2016 (GMT -0600)
Mena

Weather History for KMEZ - September, 2013

Change the Weather History Date:

Monday, September 9, 2013

  Actual Average (KDEQ) Record (KDEQ)
Temperature  
Mean Temperature 81 °F 76 °F  
Max Temperature 96 °F 89 °F 102 °F (1954)
Min Temperature 66 °F 64 °F 46 °F (1956)
Degree Days  
Heating Degree Days 0 0  
Month to date heating degree days 0  
Since 1 July heating degree days 0  
Cooling Degree Days 16 12  
Month to date cooling degree days 117  
Year to date cooling degree days 1709  
Growing Degree Days 31 (Base 50)    
Moisture  
Dew Point 62 °F    
Average Humidity 60    
Maximum Humidity 100    
Minimum Humidity 22    
Precipitation  
Precipitation 0.00 in 0.13 in 1.62 in (1951)
Month to date precipitation 1.05  
Year to date precipitation 32.64  
Snow  
Snow 0.00 in - - ()
Month to date snowfall  
Since 1 July snowfall  
Since 1 September snowfall  
Snow Depth -    
Sea Level Pressure  
Sea Level Pressure 30.02 in    
Wind  
Wind Speed 1 mph (South)    
Max Wind Speed 9 mph    
Max Gust Speed 16 mph    
Visibility 10 miles    
Events      
T = Trace of Precipitation, MM = Missing Value Source: NWS Daily Summary

Daily Weather History Graph

Daily Weather History Graph

Search for Another Location

Airport or City:

Trip Planner

Search our weather history database for the weather conditions in past years. The results will help you decide how hot, cold, wet, or windy it might be!

Date:

Astronomy

Sep. 09, 2013 Rise Set
Actual Time 6:55 AM CDT 7:31 PM CDT
Civil Twilight 6:30 AM CDT 7:56 PM CDT
Nautical Twilight 6:00 AM CDT 8:26 PM CDT
Astronomical Twilight 5:29 AM CDT 8:57 PM CDT
Moon 11:05 AM CDT 10:02 PM CDT
Length of Visible Light 13h 26m
Length of Day
12h 35m
Waxing Crescent, 19% of the Moon is Illuminated
Sep 9
Waxing Crescent
Sep 12
First Quarter
Sep 19
Full
Sep 26
Last Quarter
Oct 4
New

Hourly Weather History & Observations

Time (CDT) Temp. Heat Index Dew Point Humidity Pressure Visibility Wind Dir Wind Speed Gust Speed Precip Events Conditions
12:15 AM 71.6 °F - 64.4 °F 78% 29.99 in 10.0 mi Calm Calm - N/A   Clear
12:35 AM 69.8 °F - 64.4 °F 83% 29.99 in 10.0 mi Calm Calm - N/A   Clear
12:55 AM 71.6 °F - 64.4 °F 78% 29.99 in 10.0 mi Calm Calm - N/A   Clear
1:15 AM 71.6 °F - 64.4 °F 78% 29.99 in 10.0 mi Calm Calm - N/A   Clear
1:35 AM 69.8 °F - 64.4 °F 83% 29.98 in 10.0 mi Calm Calm - N/A   Clear
1:55 AM 69.8 °F - 64.4 °F 83% 29.98 in 10.0 mi Calm Calm - N/A   Clear
2:15 AM 69.8 °F - 64.4 °F 83% 29.98 in 10.0 mi Calm Calm - N/A   Clear
2:35 AM 69.8 °F - 68.0 °F 94% 29.98 in 10.0 mi Calm Calm - N/A   Clear
2:55 AM 68.0 °F - 68.0 °F 100% 29.98 in 10.0 mi Calm Calm - N/A   Clear
3:15 AM 68.0 °F - 68.0 °F 100% 29.98 in 10.0 mi Calm Calm - N/A   Clear
3:35 AM 68.0 °F - 68.0 °F 100% 29.98 in 10.0 mi Calm Calm - N/A   Clear
3:55 AM 68.0 °F - 68.0 °F 100% 29.98 in 7.0 mi Calm Calm - N/A   Clear
4:15 AM 69.8 °F - 69.8 °F 100% 29.99 in 10.0 mi Calm Calm - N/A   Clear
4:35 AM 68.0 °F - 68.0 °F 100% 29.99 in 7.0 mi Calm Calm - N/A   Clear
4:55 AM 68.0 °F - 68.0 °F 100% 30.00 in 10.0 mi Calm Calm - N/A   Clear
5:15 AM 68.0 °F - 68.0 °F 100% 30.00 in 10.0 mi Calm Calm - N/A   Clear
5:35 AM 68.0 °F - 68.0 °F 100% 30.01 in 7.0 mi Calm Calm - N/A   Clear
5:55 AM 68.0 °F - 68.0 °F 100% 30.01 in 7.0 mi Calm Calm - N/A   Clear
6:15 AM 68.0 °F - 68.0 °F 100% 30.01 in 7.0 mi Calm Calm - N/A   Clear
6:35 AM 68.0 °F - 68.0 °F 100% 30.02 in 7.0 mi Calm Calm - N/A   Clear
6:55 AM 68.0 °F - 68.0 °F 100% 30.02 in 7.0 mi Calm Calm - N/A   Clear
7:15 AM 66.2 °F - 66.2 °F 100% 30.03 in 7.0 mi Calm Calm - N/A   Clear
7:35 AM 68.0 °F - 68.0 °F 100% 30.03 in 7.0 mi Calm Calm - N/A   Clear
7:55 AM 69.8 °F - 69.8 °F 100% 30.04 in 10.0 mi Calm Calm - N/A   Clear
8:15 AM 71.6 °F - 71.6 °F 100% 30.04 in 10.0 mi Calm Calm - N/A   Clear
8:35 AM 75.2 °F - 73.4 °F 94% 30.04 in 10.0 mi Calm Calm - N/A   Clear
8:55 AM 78.8 °F - 66.2 °F 65% 30.05 in 10.0 mi Calm Calm - N/A   Clear
9:15 AM 80.6 °F 82.3 °F 64.4 °F 58% 30.05 in 10.0 mi Calm Calm - N/A   Clear
9:35 AM 82.4 °F 83.9 °F 64.4 °F 54% 30.06 in 10.0 mi Calm Calm - N/A   Clear
9:55 AM 84.2 °F 85.6 °F 64.4 °F 51% 30.06 in 10.0 mi Calm Calm - N/A   Clear
10:15 AM 87.8 °F 88.5 °F 62.6 °F 43% 30.06 in 10.0 mi Calm Calm - N/A   Clear
10:35 AM 87.8 °F 88.5 °F 62.6 °F 43% 30.06 in 10.0 mi Calm Calm - N/A   Clear
10:55 AM 89.6 °F 90.1 °F 62.6 °F 40% 30.06 in 10.0 mi West 4.6 mph - N/A   Clear
11:15 AM 91.4 °F 91.4 °F 60.8 °F 36% 30.06 in 10.0 mi SW 3.5 mph - N/A   Clear
11:35 AM 91.4 °F 91.4 °F 60.8 °F 36% 30.06 in 10.0 mi West 3.5 mph - N/A   Clear
11:55 AM 93.2 °F 93.3 °F 60.8 °F 34% 30.06 in 10.0 mi SW 4.6 mph - N/A   Clear
12:15 PM 95.0 °F 94.4 °F 59.0 °F 30% 30.06 in 10.0 mi South 4.6 mph - N/A   Clear
12:35 PM 95.0 °F 94.4 °F 59.0 °F 30% 30.05 in 10.0 mi SW 6.9 mph - N/A   Scattered Clouds
12:55 PM 95.0 °F 94.4 °F 59.0 °F 30% 30.05 in 10.0 mi SE 6.9 mph - N/A   Scattered Clouds
1:15 PM 95.0 °F 94.4 °F 59.0 °F 30% 30.05 in 10.0 mi SSE 5.8 mph - N/A   Clear
1:35 PM 95.0 °F 94.4 °F 59.0 °F 30% 30.04 in 10.0 mi South 3.5 mph - N/A   Clear
1:55 PM 95.0 °F 93.7 °F 57.2 °F 28% 30.03 in 10.0 mi SE 3.5 mph - N/A   Clear
2:15 PM 96.8 °F 95.8 °F 57.2 °F 27% 30.03 in 10.0 mi South 8.1 mph - N/A   Clear
2:35 PM 96.8 °F 95.1 °F 55.4 °F 25% 30.03 in 10.0 mi SE 9.2 mph 16.1 mph N/A   Clear
2:55 PM 96.8 °F 95.8 °F 57.2 °F 27% 30.02 in 10.0 mi South 6.9 mph - N/A   Clear
3:15 PM 96.8 °F 95.1 °F 55.4 °F 25% 30.01 in 10.0 mi South 6.9 mph - N/A   Clear
3:35 PM 95.0 °F 93.0 °F 55.4 °F 26% 30.01 in 10.0 mi South 5.8 mph - N/A   Clear
3:55 PM 96.8 °F 95.1 °F 55.4 °F 25% 30.01 in 10.0 mi South 5.8 mph - N/A   Clear
4:15 PM 95.0 °F 92.7 °F 53.6 °F 25% 30.00 in 10.0 mi SE 8.1 mph - N/A   Clear
4:35 PM 96.8 °F - 51.8 °F 22% 30.00 in 10.0 mi South 5.8 mph - N/A   Clear
4:55 PM 95.0 °F 92.7 °F 53.6 °F 25% 30.00 in 10.0 mi SSW 4.6 mph - N/A   Clear
5:15 PM 95.0 °F 93.0 °F 55.4 °F 26% 30.00 in 10.0 mi SSE 6.9 mph - N/A   Clear
5:35 PM 95.0 °F 93.7 °F 57.2 °F 28% 29.99 in 10.0 mi SE 4.6 mph - N/A   Clear
5:55 PM 95.0 °F 93.0 °F 55.4 °F 26% 29.99 in 10.0 mi Calm Calm - N/A   Clear
6:15 PM 95.0 °F 93.0 °F 55.4 °F 26% 29.99 in 10.0 mi SE 5.8 mph - N/A   Clear
6:35 PM 93.2 °F 90.8 °F 53.6 °F 26% 29.99 in 10.0 mi SE 5.8 mph - N/A   Clear
6:55 PM 91.4 °F 89.1 °F 53.6 °F 28% 29.99 in 10.0 mi SE 3.5 mph - N/A   Clear
7:15 PM 89.6 °F 87.7 °F 55.4 °F 31% 29.99 in 10.0 mi Calm Calm - N/A   Clear
7:35 PM 89.6 °F 87.7 °F 55.4 °F 31% 29.99 in 10.0 mi Calm Calm - N/A   Clear
7:55 PM 87.8 °F 86.1 °F 55.4 °F 33% 29.99 in 10.0 mi Calm Calm - N/A   Clear
8:15 PM 86.0 °F 85.4 °F 59.0 °F 40% 30.00 in 10.0 mi Calm Calm - N/A   Clear
8:35 PM 78.8 °F - 60.8 °F 54% 30.00 in 10.0 mi Calm Calm - N/A   Clear
8:55 PM 80.6 °F 81.5 °F 60.8 °F 51% 30.01 in 10.0 mi Calm Calm - N/A   Clear
9:15 PM 77.0 °F - 62.6 °F 61% 30.01 in 10.0 mi Calm Calm - N/A   Clear
9:35 PM 77.0 °F - 62.6 °F 61% 30.02 in 10.0 mi Calm Calm - N/A   Clear
9:55 PM 73.4 °F - 62.6 °F 69% 30.03 in 10.0 mi Calm Calm - N/A   Clear
10:15 PM 73.4 °F - 62.6 °F 69% 30.03 in 10.0 mi Calm Calm - N/A   Clear
10:35 PM 73.4 °F - 62.6 °F 69% 30.03 in 10.0 mi Calm Calm - N/A   Clear
10:55 PM 73.4 °F - 62.6 °F 69% 30.03 in 10.0 mi Calm Calm - N/A   Clear
11:15 PM 71.6 °F - 62.6 °F 73% 30.04 in 10.0 mi Calm Calm - N/A   Clear
11:35 PM 71.6 °F - 62.6 °F 73% 30.04 in 10.0 mi Calm Calm - N/A   Clear
11:55 PM 71.6 °F - 64.4 °F 78% 30.04 in 10.0 mi Calm Calm - N/A   Clear